{"data":{"norad_id":45147,"intl_designator":"2020-008S","name":"ONEWEB-0040","alt_names":[],"object_type":"PAYLOAD","status":"ACTIVE","operator":null,"country":"UK","launch_date":"2020-02-06","launch_site_code":"TYMSC","launch_vehicle":null,"mission":null,"orbit_class":"UNKNOWN","rcs_meters":null,"size_class":null,"mass_kg":null,"dimensions":null,"purposes":["comms"],"wikipedia_slug":null,"has_3d_model":false,"image_url":null,"decayed_at":null,"tle_current":{"epoch":"2026-09-20T00:54:15.501024Z","epoch_age_seconds":54239,"freshness":"FRESH","line1":"1 45147U 20008S   26263.03767941 -.00000596  00000+0 -17427-2 0  9991","line2":"2 45147  87.8895  17.3914 0001817 110.0568 250.0755 13.10371132320282","mean_motion":13.10371132,"eccentricity":0.0001817,"inclination_deg":87.8895,"raan_deg":17.3914,"arg_perigee_deg":110.0568,"mean_anomaly_deg":250.0755,"bstar":-0.0017427,"rev_number":32028,"period_min":109.89253081317,"perigee_km":1220.3427711705,"apogee_km":1223.1045605365,"semimajor_km":7599.8606658535,"source":"CELESTRAK","updated_at":"2026-09-20T09:00:44.548010Z"}}}